Wind_Speed
20 21 22 23 24 26 21 6 3 3 12 0 2 2 4 6 17 5 6 6 6 3 7 4 7 6 6 10 10 9 8 3 5 8 4 8 4 6 6 6 5 1 4 5
20 21 22 22 23 22 15 3 3 5 3 1 2 4 5 6 12 8 6 7 3 10 4 4 3 5 7 7 6 9 7 2 3 2 4 3 5 3 5 6 3 7 6 6
19 20 22 23 22 20 13 3 4 4 3 2 7 7 5 4 10 11 10 8 10 7 4 2 6 6 3 4 7 7 6 5 8 10 6 5 7 5 5 6 4 5 5 4
18 19 20 22 22 19 11 3 3 3 3 4 7 6 4 8 7 6 5 3 5 4 4 6 4 6 6 2 1 5 7 6 6 6 11 7 5 6 8 5 5 7 6 7
16 17 18 20 22 19 4 1 2 4 4 5 6 3 4 11 12 4 8 7 11 7 4 3 6 5 5 3 4 4 1 3 3 1 7 9 8 9 10 7 6 4 11 7
16 15 16 17 19 14 4 5 3 1 5 4 4 3 8 12 15 9 9 10 8 5 5 8 8 6 4 4 2 1 5 5 3 4 7 6 4 10 8 7 6 9 6 7
14 15 15 15 16 14 6 4 5 2 4 2 3 12 11 11 14 12 14 12 6 5 15 9 3 3 4 6 7 5 5 6 3 4 4 3 7 7 11 11 10 9 6 10
15 15 14 13 14 14 10 8 3 2 3 4 6 14 12 12 10 7 9 10 8 12 7 2 3 5 7 5 6 5 4 4 3 5 3 3 1 4 6 7 9 9 11 9
15 15 13 13 13 13 11 11 6 3 1 4 6 7 6 4 4 6 5 10 14 6 1 1 3 3 4 2 4 4 4 4 4 2 6 10 5 3 5 4 6 5 9 11
15 15 13 13 12 11 11 6 7 3 2 4 1 1 3 5 4 3 5 11 8 9 3 2 2 2 3 4 4 5 3 3 6 2 2 5 5 9 5 6 5 5 6 8
15 16 15 14 12 11 9 8 8 4 3 6 6 3 3 2 2 1 5 5 4 3 2 1 3 3 3 2 3 4 5 5 3 3 3 6 4 1 7 6 4 4 5 4
16 17 16 15 13 11 9 5 5 11 5 5 22 26 26 18 23 3 2 3 1 2 3 3 4 2 2 4 3 1 5 4 5 7 6 5 4 6 2 4 5 3 5 5
18 17 17 15 15 13 10 11 10 5 2 6 3 5 11 9 19 19 3 2 2 1 3 0 3 4 4 1 4 3 0 5 3 3 4 4 3 3 3 2 4 5 5 3
20 19 18 18 17 16 12 12 10 5 4 3 6 9 13 21 16 8 23 7 4 3 1 2 2 3 6 3 4 2 4 0 4 1 4 6 3 8 7 9 5 3 4 4
24 23 21 20 18 17 15 15 15 15 5 2 5 19 25 10 12 8 15 10 4 2 2 2 2 1 2 3 3 3 3 3 1 2 2 1 5 7 9 7 7 7 5 4
28 27 25 21 20 18 7 2 8 16 21 2 3 6 6 14 12 14 9 8 3 3 2 3 3 3 3 2 2 3 4 5 5 2 5 6 10 7 5 7 12 7 6 5
29 26 23 25 21 17 6 4 8 8 12 3 3 4 4 6 3 1 2 2 3 3 2 2 2 3 3 2 3 6 7 5 7 5 7 3 2 1 7 8 12 14 5 2
16 17 17 12 12 13 13 15 6 3 2 2 2 4 4 4 0 1 0 2 1 1 3 1 2 2 2 3 6 8 9 6 3 9 6 2 6 1 4 9 13 9 8 7
9 8 5 5 6 5 5 4 13 12 3 2 2 2 3 3 2 1 1 1 1 1 2 2 3 2 4 5 6 7 6 1 4 6 5 8 10 10 7 10 15 15 7 8
4 5 2 2 6 15 17 4 2 2 2 2 4 2 3 3 0 0 3 1 2 1 4 2 3 4 8 9 8 8 9 8 5 4 5 5 5 6 6 6 4 12 7 6
6 3 1 5 14 4 3 3 2 2 2 3 4 6 4 2 2 3 2 1 1 2 3 5 3 3 6 9 11 12 12 11 11 7 6 2 4 3 3 4 1 7 15 8
11 10 6 5 2 0 4 3 2 4 4 3 4 5 5 3 2 2 2 2 1 4 2 3 2 4 4 4 7 7 7 8 4 5 5 3 5 4 5 5 4 6 16 18
11 3 3 3 1 1 6 6 3 3 3 4 3 2 4 1 1 1 2 3 3 1 3 3 4 4 3 3 4 6 5 6 7 6 8 13 10 13 11 6 7 8 12 14
3 4 5 4 3 5 5 4 3 4 3 2 2 3 3 2 2 2 3 3 2 3 1 3 3 3 2 4 3 5 3 4 6 5 6 6 5 3 6 5 4 5 6 13
3 3 4 6 4 4 5 5 2 3 2 3 2 2 2 1 1 2 1 2 2 4 4 3 4 4 1 2 3 3 3 2 1 2 3 3 4 4 7 12 14 14 12 8
2 3 2 2 2 4 3 2 4 3 3 2 2 2 1 3 3 3 5 3 5 3 3 3 2 2 2 2 3 6 6 4 4 4 2 3 4 5 8 13 15 19 20 18
3 3 3 3 3 4 4 4 4 5 3 3 2 4 7 0 2 4 4 4 3 4 2 1 1 3 4 6 5 5 4 3 1 2 5 7 10 12 12 7 19 20 22 21
Wind_Direction
345 346 345 345 345 347 351 358 341 33 352 185 201 187 204 251 288 325 294 278 282 343 351 313 223 221 195 173 195 171 194 150 181 195 200 157 158 155 131 139 241 33 141 270
344 347 348 350 348 352 341 332 272 331 162 228 256 285 270 263 290 292 275 326 25 340 285 317 332 235 220 144 143 179 170 212 94 76 358 355 131 144 111 105 96 185 139 258
344 346 352 354 351 352 347 11 338 320 11 38 1 359 295 315 309 271 254 251 296 301 322 281 303 320 301 150 158 150 134 150 170 202 183 158 152 147 151 127 130 163 215 198
342 346 352 353 353 352 343 14 284 332 318 329 323 352 289 304 322 303 318 274 212 304 304 321 11 357 324 22 135 111 135 173 156 175 173 158 160 155 166 155 163 173 180 188
338 341 347 350 354 352 9 68 8 342 279 305 339 339 310 5 346 294 303 322 323 290 236 251 300 6 9 323 329 127 107 206 117 168 175 170 207 200 172 189 169 152 164 221
334 337 343 347 352 6 352 348 307 272 295 326 350 349 341 318 338 295 271 343 329 294 341 291 240 211 228 223 249 240 129 127 102 183 131 93 303 213 186 199 172 179 169 202
330 331 334 337 345 357 333 316 304 289 294 311 302 316 320 321 319 295 290 304 296 325 323 308 336 11 316 318 316 220 136 112 107 173 99 179 248 195 190 193 228 202 211 181
318 320 325 327 332 341 343 318 295 316 287 299 308 346 318 309 321 312 279 360 316 297 290 359 1 342 9 308 254 240 143 117 93 140 174 272 275 171 152 157 242 215 207 216
305 307 313 318 324 331 338 325 287 257 318 268 337 313 330 333 325 324 325 335 323 351 337 102 166 201 192 260 288 153 85 98 129 118 157 220 171 204 132 146 247 231 193 212
301 299 298 302 310 319 326 297 317 262 259 268 24 282 270 293 318 289 312 335 342 9 350 93 155 251 228 206 200 164 109 38 176 122 191 288 254 222 124 193 225 232 200 209
301 299 294 290 292 303 316 297 316 269 282 270 259 281 261 271 264 347 298 348 15 353 280 191 229 178 247 279 231 183 158 144 184 92 90 259 247 135 175 208 232 217 158 184
306 305 292 284 280 283 297 286 285 303 264 269 290 272 264 249 242 214 306 205 284 337 348 3 310 312 318 181 220 179 234 195 178 179 201 220 226 206 257 175 193 200 175 171
298 298 302 286 275 270 263 276 284 292 272 283 303 259 315 283 251 247 178 231 190 222 207 21 301 280 350 244 243 343 267 196 115 81 352 289 247 265 314 220 197 151 160 119
292 292 293 289 277 260 251 254 270 238 281 277 280 326 307 295 291 285 211 186 161 140 186 196 222 297 12 299 304 292 227 257 131 44 328 334 301 30 360 341 297 174 152 126
285 284 281 280 285 258 247 249 258 257 224 270 288 306 294 307 230 224 176 165 150 168 191 200 231 229 304 279 292 268 342 345 117 169 22 278 283 342 339 330 302 257 174 155
279 275 276 269 274 263 205 316 238 242 226 271 300 287 286 277 228 224 172 181 178 177 173 221 254 239 182 284 286 241 39 12 29 346 287 239 269 292 10 336 330 276 190 156
291 267 270 271 255 223 163 194 153 72 198 225 275 288 266 290 167 82 124 124 208 151 223 217 240 286 154 227 244 290 340 330 331 319 329 10 247 304 357 335 335 330 300 216
272 267 274 256 231 213 211 217 196 324 180 244 285 272 330 6 305 176 154 147 167 223 221 322 213 302 164 252 244 270 291 339 358 0 359 336 330 93 359 349 351 14 11 347
265 292 248 192 168 183 184 219 232 243 209 199 236 219 261 348 357 56 79 99 183 269 188 227 133 244 232 224 239 257 280 357 324 330 17 25 16 356 50 11 1 343 360 4
209 149 140 180 196 135 127 117 108 192 233 214 245 266 270 76 49 203 337 202 194 190 230 118 172 250 265 269 254 260 275 280 309 322 335 352 30 338 351 121 31 337 307 355
155 139 157 98 131 126 59 145 188 259 242 213 231 202 229 222 156 205 163 270 215 212 240 161 201 253 247 246 245 250 251 264 275 213 224 217 239 265 7 99 324 3 337 347
173 132 118 114 111 270 105 207 285 199 231 214 197 210 188 233 159 122 206 246 227 247 141 101 242 246 252 250 239 239 219 221 287 151 108 7 279 235 188 148 111 18 351 347
127 89 115 117 240 28 173 206 221 212 210 216 194 207 152 87 156 188 154 197 238 19 42 223 228 262 282 190 99 97 108 97 94 73 68 69 67 66 66 44 44 36 6 342
118 148 163 207 233 235 205 213 196 221 191 189 143 156 194 189 133 194 171 223 69 341 270 234 246 245 266 295 265 149 150 113 112 116 102 89 78 50 27 26 18 25 25 329
147 175 207 219 220 231 226 218 205 241 182 127 96 82 70 266 232 207 139 38 248 219 231 238 233 240 69 316 219 225 186 203 305 24 50 31 44 18 348 350 345 320 311 306
188 231 264 264 128 276 303 230 241 183 149 100 72 108 218 244 192 160 207 201 206 238 215 240 293 295 290 245 203 220 215 206 221 233 242 305 331 315 314 323 323 316 308 297
236 253 226 209 204 229 236 203 219 146 116 156 133 176 215 177 191 206 189 210 212 214 302 282 264 273 278 286 277 219 207 198 206 323 338 329 327 327 325 314 308 306 301 292
Height
834 830 826 821 816 810 802 800 806 783 782 784 780 779 771 762 750 753 751 740 733 730 733 725 722 721 711 705 710 725 726 742 752 739 725 728 737 751 762 792 804 814 815 802
834 830 826 821 817 812 808 807 801 784 784 780 788 780 770 764 757 756 751 747 740 742 737 736 722 716 704 702 709 722 724 753 765 746 745 736 740 740 753 771 790 792 814 804
834 830 826 822 817 814 810 810 805 796 788 787 790 786 774 769 756 751 749 745 744 742 739 730 729 720 707 703 703 709 714 737 740 747 739 744 745 743 753 760 787 790 791 775
834 831 827 823 819 815 812 813 816 803 806 796 793 786 782 772 765 751 747 740 740 740 747 741 731 724 715 707 707 709 718 734 730 729 725 730 737 741 751 754 762 771 768 769
833 830 827 824 820 816 814 821 815 810 805 796 793 786 783 777 772 771 752 750 743 738 742 738 740 731 730 720 712 711 719 734 730 744 725 726 734 738 745 748 755 753 759 763
832 830 827 825 822 819 817 816 815 813 804 801 798 791 791 784 779 762 754 754 749 740 738 734 728 726 726 726 728 720 721 736 746 743 732 736 753 738 740 742 744 746 761 748
831 829 827 825 823 821 820 819 817 812 810 805 800 793 784 782 778 779 764 754 750 741 736 730 725 726 724 721 721 719 725 730 747 765 740 762 729 719 723 734 730 735 738 738
829 828 826 824 823 821 819 818 818 813 814 804 797 794 789 781 775 770 761 754 753 746 738 740 743 752 740 738 721 716 715 733 756 760 765 741 725 719 726 734 737 726 731 732
827 825 824 823 821 820 818 816 815 814 810 807 798 796 790 787 784 776 764 757 750 743 744 748 760 756 742 734 719 711 718 721 735 766 759 751 730 713 714 718 745 720 723 726
823 822 821 820 819 818 817 815 814 813 813 802 798 801 798 792 786 786 774 769 759 755 758 760 754 744 727 729 725 723 739 746 738 775 763 741 722 711 711 739 747 716 717 718
819 818 817 817 816 816 815 814 813 812 808 799 793 792 791 788 789 793 784 775 770 770 760 753 752 751 734 727 715 717 726 745 755 757 771 750 712 711 725 723 713 709 709 711
815 814 813 813 813 813 813 812 811 810 808 798 791 786 786 786 782 787 782 784 782 780 777 772 766 749 742 732 733 712 724 722 731 730 730 714 709 709 705 709 708 707 710 707
811 810 809 808 808 809 810 809 808 808 805 795 788 779 776 774 775 776 784 781 780 782 780 780 772 754 751 739 737 718 716 719 723 720 715 712 705 706 705 704 705 704 706 705
806 805 805 804 803 804 805 805 805 806 805 799 786 775 772 770 771 770 771 772 776 777 779 778 777 767 761 751 745 739 725 716 720 728 718 713 709 718 718 713 707 705 703 703
800 799 799 798 798 798 799 800 800 801 805 800 789 776 763 762 762 763 766 769 773 777 776 778 774 769 769 759 752 743 727 727 727 730 725 723 721 720 717 716 711 707 705 703
791 791 791 791 792 791 792 798 793 793 798 799 797 774 763 760 761 761 764 766 770 772 775 777 770 761 765 767 748 734 732 730 728 730 724 724 722 720 718 718 712 707 703 701
781 780 782 782 783 786 788 792 789 791 793 793 791 781 762 756 757 761 763 764 768 771 771 772 767 761 761 770 757 733 731 729 726 726 723 721 716 717 718 718 714 708 704 702
773 775 775 776 779 781 784 785 787 789 791 791 785 783 773 759 763 763 762 765 768 768 768 766 766 761 767 768 745 736 732 731 729 729 727 726 722 718 718 718 715 711 710 708
771 771 772 773 775 778 779 783 786 788 793 799 785 788 792 761 764 763 765 765 772 765 768 771 765 763 761 742 739 735 731 733 734 732 728 727 725 723 718 719 722 721 715 713
769 770 772 772 773 775 778 783 786 787 786 785 781 776 776 766 766 766 767 763 764 776 763 759 763 756 739 734 733 733 731 730 731 732 730 729 728 731 726 727 732 730 720 716
767 769 774 773 774 777 780 786 787 794 786 780 772 769 766 762 767 766 764 763 760 769 753 756 755 749 733 727 727 725 725 726 724 727 727 727 727 728 728 726 728 728 727 720
763 766 770 773 777 779 789 790 785 778 773 765 763 762 761 759 758 764 763 755 756 751 753 765 751 736 724 723 721 720 720 722 719 719 723 723 724 722 723 723 725 724 724 724
763 766 771 774 778 786 789 791 771 771 757 751 752 754 754 757 757 761 760 755 752 748 776 749 739 728 722 720 720 720 719 719 719 721 722 723 725 725 725 726 725 723 725 728
762 768 767 770 787 766 757 752 749 747 746 746 747 750 752 753 756 753 751 746 751 764 755 737 735 725 720 721 719 718 719 719 719 721 722 724 725 726 727 727 727 727 728 730
760 759 773 755 747 747 743 741 742 739 740 744 748 747 750 747 747 747 746 754 757 742 743 736 728 719 719 718 719 719 719 720 721 721 721 722 723 724 724 725 726 726 726 726
752 753 749 743 746 747 743 739 738 736 739 741 742 748 746 751 741 744 754 739 738 733 730 727 722 719 718 718 717 717 717 718 718 719 719 720 720 720 721 721 721 722 722 720
748 747 742 740 740 740 734 731 729 732 737 743 744 748 746 745 745 735 736 734 725 724 725 725 723 722 719 717 715 714 715 717 717 718 718 718 718 717 717 717 715 716 716 716